| time (UTC) | temp C | wind direction | speed KPH | gust KPH | rain 1hr cm | rain 24hr cm | rain mn cm | humidity % | barometer mb |
| 20260505140504 | 26 | 65 | 4.8 | 16.1 | 0.00 | 0.08 | 0.00 | 77 | 1016.3 |
| 20260505125004 | 25 | 55 | 4.8 | 17.7 | 0.00 | 0.08 | 0.00 | 82 | 1015.9 |
| 20260505124504 | 25 | 51 | 8.0 | 16.1 | 0.00 | 0.08 | 0.00 | 81 | 1016.0 |
| 20260505124003 | 25 | 50 | 3.2 | 11.3 | 0.00 | 0.08 | 0.00 | 82 | 1015.8 |
| 20260505123504 | 25 | 55 | 4.8 | 11.3 | 0.00 | 0.08 | 0.00 | 82 | 1015.8 |
| 20260505123214 | 25 | 52 | 4.8 | 14.5 | 0.00 | 0.08 | 0.00 | 83 | 1015.7 |
| 20260505122504 | 25 | 57 | 4.8 | 14.5 | 0.00 | 0.08 | 0.00 | 83 | 1015.5 |
| 20260505122004 | 25 | 55 | 3.2 | 6.4 | 0.00 | 0.08 | 0.00 | 83 | 1015.5 |
| 20260505121719 | 25 | 51 | 4.8 | 6.4 | 0.00 | 0.08 | 0.00 | 83 | 1015.5 |
| 20260505121004 | 25 | 64 | 3.2 | 9.7 | 0.00 | 0.08 | 0.00 | 83 | 1015.4 |
| 20260505120505 | 25 | 72 | 4.8 | 9.7 | 0.00 | 0.08 | 0.00 | 82 | 1015.4 |
| 20260505120004 | 24 | 76 | 4.8 | 9.7 | 0.00 | 0.08 | 0.00 | 84 | 1015.2 |
| 20260505115504 | 24 | 65 | 3.2 | 9.7 | 0.00 | 0.15 | 0.00 | 84 | 1015.2 |
| 20260505115004 | 23 | 26 | 0.0 | 6.4 | 0.00 | 0.20 | 0.00 | 87 | 1015.2 |
| 20260505114503 | 23 | 42 | 0.0 | 6.4 | 0.00 | 0.28 | 0.00 | 87 | 1015.2 |
| 20260505114214 | 23 | 47 | 1.6 | 6.4 | 0.00 | 0.46 | 0.00 | 87 | 1015.2 |
| 20260505113504 | 23 | 47 | 3.2 | 6.4 | 0.00 | 1.07 | 0.00 | 88 | 1015.1 |
| 20260505113215 | 23 | 42 | 1.6 | 4.8 | 0.00 | 1.07 | 0.00 | 88 | 1015.1 |
| 20260505112504 | 23 | 44 | 0.0 | 4.8 | 0.00 | 1.07 | 0.00 | 88 | 1015.0 |
| 20260505112004 | 23 | 42 | 1.6 | 4.8 | 0.00 | 1.07 | 0.00 | 87 | 1015.0 |
| 20260505111504 | 23 | 48 | 3.2 | 6.4 | 0.00 | 1.07 | 0.00 | 87 | 1015.0 |
| 20260505111217 | 23 | 55 | 3.2 | 20.9 | 0.00 | 1.07 | 0.00 | 86 | 1015.0 |
| 20260505110504 | 23 | 77 | 1.6 | 20.9 | 0.00 | 1.07 | 0.00 | 85 | 1015.0 |
| 20260505102004 | 23 | 51 | 3.2 | 16.1 | 0.00 | 1.07 | 0.00 | 83 | 1014.6 |
| 20260505101505 | 23 | 49 | 3.2 | 12.9 | 0.00 | 1.07 | 0.00 | 83 | 1014.6 |
| 20260505101003 | 23 | 49 | 3.2 | 14.5 | 0.00 | 1.07 | 0.00 | 83 | 1014.6 |
| 20260505100504 | 23 | 52 | 6.4 | 14.5 | 0.00 | 1.07 | 0.00 | 83 | 1014.5 |
| 20260505100214 | 23 | 55 | 3.2 | 14.5 | 0.00 | 1.07 | 0.00 | 84 | 1014.5 |
| 20260505095503 | 22 | 57 | 1.6 | 14.5 | 0.00 | 1.07 | 0.00 | 84 | 1014.3 |
| 20260505095004 | 22 | 59 | 1.6 | 11.3 | 0.00 | 1.07 | 0.00 | 84 | 1014.3 |
| 20260505094504 | 22 | 60 | 4.8 | 11.3 | 0.00 | 1.07 | 0.00 | 84 | 1014.2 |
| 20260505094003 | 22 | 57 | 1.6 | 9.7 | 0.00 | 1.07 | 0.00 | 84 | 1014.1 |
| 20260505093504 | 22 | 57 | 1.6 | 14.5 | 0.00 | 1.07 | 0.00 | 83 | 1014.2 |
| 20260505093004 | 23 | 60 | 4.8 | 14.5 | 0.00 | 1.07 | 0.00 | 83 | 1014.2 |
| 20260505092503 | 23 | 61 | 4.8 | 14.5 | 0.00 | 1.07 | 0.00 | 83 | 1014.1 |
| 20260505092003 | 23 | 53 | 4.8 | 14.5 | 0.00 | 1.07 | 0.00 | 83 | 1014.0 |
| 20260505091503 | 23 | 50 | 1.6 | 17.7 | 0.00 | 1.07 | 0.00 | 83 | 1014.1 |
| 20260505091213 | 23 | 53 | 4.8 | 17.7 | 0.00 | 1.07 | 0.00 | 83 | 1014.2 |
| 20260505090716 | 23 | 53 | 4.8 | 14.5 | 0.00 | 1.07 | 0.00 | 83 | 1014.0 |
| 20260505090004 | 23 | 55 | 8.0 | 16.1 | 0.00 | 1.07 | 0.00 | 83 | 1014.0 |
| 20260505085504 | 23 | 61 | 6.4 | 14.5 | 0.00 | 1.07 | 0.00 | 83 | 1014.0 |
| 20260505085215 | 23 | 63 | 4.8 | 17.7 | 0.00 | 1.07 | 0.00 | 83 | 1014.0 |
| 20260505084503 | 23 | 64 | 8.0 | 17.7 | 0.00 | 1.07 | 0.00 | 83 | 1014.0 |
| 20260505084004 | 23 | 65 | 4.8 | 11.3 | 0.00 | 1.07 | 0.00 | 84 | 1014.0 |
| 20260505083504 | 23 | 63 | 3.2 | 11.3 | 0.00 | 1.07 | 0.00 | 84 | 1013.9 |
| 20260505083217 | 23 | 58 | 3.2 | 11.3 | 0.00 | 1.07 | 0.00 | 84 | 1013.9 |
| 20260505082504 | 23 | 56 | 3.2 | 12.9 | 0.00 | 1.07 | 0.00 | 84 | 1014.0 |
| 20260505082004 | 23 | 59 | 8.0 | 12.9 | 0.00 | 1.07 | 0.00 | 84 | 1013.9 |
| 20260505081504 | 23 | 58 | 3.2 | 14.5 | 0.00 | 1.07 | 0.00 | 84 | 1014.0 |
| 20260505081214 | 23 | 57 | 1.6 | 14.5 | 0.00 | 1.07 | 0.00 | 84 | 1014.0 |
| 20260505080505 | 23 | 59 | 3.2 | 12.9 | 0.00 | 1.07 | 0.00 | 84 | 1014.0 |
| 20260505080004 | 23 | 65 | 4.8 | 17.7 | 0.00 | 1.07 | 0.00 | 84 | 1014.1 |
| 20260505075504 | 23 | 60 | 3.2 | 17.7 | 0.00 | 1.07 | 0.00 | 84 | 1014.0 |
| 20260505075216 | 23 | 61 | 6.4 | 17.7 | 0.00 | 1.07 | 0.00 | 84 | 1014.1 |
| 20260505074714 | 23 | 62 | 3.2 | 14.5 | 0.00 | 1.07 | 0.00 | 83 | 1014.2 |
| 20260505074004 | 23 | 67 | 6.4 | 12.9 | 0.00 | 1.07 | 0.00 | 82 | 1014.2 |
| 20260505073504 | 23 | 68 | 6.4 | 20.9 | 0.00 | 1.07 | 0.00 | 81 | 1014.1 |
| 20260505073004 | 23 | 63 | 4.8 | 20.9 | 0.00 | 1.07 | 0.00 | 81 | 1014.3 |
| 20260505072503 | 23 | 55 | 4.8 | 19.3 | 0.00 | 1.07 | 0.00 | 79 | 1014.2 |
| 20260505072004 | 23 | 55 | 1.6 | 16.1 | 0.00 | 1.07 | 0.00 | 79 | 1014.2 |
| 20260505071503 | 23 | 58 | 4.8 | 19.3 | 0.00 | 1.07 | 0.00 | 80 | 1014.2 |
| 20260505071003 | 23 | 59 | 9.7 | 19.3 | 0.00 | 1.07 | 0.00 | 79 | 1014.2 |
| 20260505070503 | 23 | 54 | 8.0 | 19.3 | 0.00 | 1.07 | 0.00 | 79 | 1014.2 |
| 20260505070005 | 23 | 52 | 8.0 | 19.3 | 0.00 | 1.07 | 0.00 | 79 | 1014.4 |
| 20260505065504 | 23 | 57 | 4.8 | 14.5 | 0.00 | 1.07 | 0.00 | 79 | 1014.4 |
| 20260505065003 | 23 | 56 | 4.8 | 14.5 | 0.00 | 1.07 | 0.00 | 79 | 1014.4 |
| 20260505064714 | 23 | 52 | 3.2 | 14.5 | 0.00 | 1.12 | 0.00 | 79 | 1014.4 |
| 20260505064003 | 23 | 59 | 4.8 | 14.5 | 0.00 | 1.19 | 0.00 | 79 | 1014.3 |
| 20260505063503 | 23 | 60 | 4.8 | 17.7 | 0.00 | 1.19 | 0.00 | 79 | 1014.3 |
| 20260505063004 | 23 | 62 | 6.4 | 17.7 | 0.00 | 1.19 | 0.00 | 79 | 1014.4 |
| 20260505062505 | 23 | 57 | 6.4 | 16.1 | 0.00 | 1.19 | 0.00 | 79 | 1014.6 |
| 20260505062004 | 23 | 51 | 6.4 | 16.1 | 0.00 | 1.19 | 0.00 | 79 | 1014.7 |
| 20260505061503 | 23 | 52 | 6.4 | 16.1 | 0.00 | 1.19 | 0.00 | 79 | 1014.9 |
| 20260505061004 | 23 | 53 | 4.8 | 14.5 | 0.00 | 1.19 | 0.00 | 79 | 1015.0 |
| 20260505060505 | 23 | 59 | 4.8 | 14.5 | 0.00 | 1.19 | 0.00 | 79 | 1014.9 |
| 20260505060005 | 23 | 63 | 4.8 | 14.5 | 0.00 | 1.19 | 0.00 | 79 | 1015.0 |
| 20260505055504 | 23 | 60 | 3.2 | 14.5 | 0.00 | 1.19 | 0.00 | 79 | 1014.9 |
| 20260505055003 | 23 | 58 | 4.8 | 16.1 | 0.00 | 1.19 | 0.00 | 79 | 1014.9 |
| 20260505054504 | 23 | 62 | 6.4 | 17.7 | 0.00 | 1.19 | 0.00 | 79 | 1014.8 |
| 20260505054004 | 23 | 68 | 8.0 | 17.7 | 0.00 | 1.19 | 0.00 | 78 | 1014.9 |
| 20260505053716 | 23 | 66 | 4.8 | 17.7 | 0.00 | 1.19 | 0.00 | 78 | 1015.0 |
| 20260505053003 | 23 | 65 | 4.8 | 17.7 | 0.00 | 1.19 | 0.00 | 78 | 1015.1 |
| 20260505052504 | 23 | 66 | 6.4 | 17.7 | 0.00 | 1.19 | 0.00 | 78 | 1015.2 |
| 20260505052004 | 23 | 57 | 9.7 | 17.7 | 0.00 | 1.19 | 0.00 | 78 | 1015.4 |
| 20260505051504 | 23 | 55 | 4.8 | 14.5 | 0.00 | 1.19 | 0.00 | 78 | 1015.3 |
| 20260505051004 | 23 | 60 | 3.2 | 14.5 | 0.00 | 1.19 | 0.00 | 77 | 1015.4 |
| 20260505050504 | 23 | 57 | 4.8 | 14.5 | 0.00 | 1.19 | 0.00 | 77 | 1015.4 |
| 20260505041506 | 23 | 63 | 6.4 | 17.7 | 0.00 | 1.19 | 0.00 | 77 | 1015.7 |
| 20260505041004 | 23 | 64 | 6.4 | 17.7 | 0.00 | 1.19 | 0.00 | 78 | 1015.8 |
| 20260505040504 | 23 | 61 | 3.2 | 12.9 | 0.00 | 1.19 | 0.00 | 77 | 1015.9 |
| 20260505040217 | 23 | 57 | 4.8 | 14.5 | 0.00 | 1.19 | 0.00 | 77 | 1015.9 |
| 20260505035505 | 23 | 58 | 3.2 | 14.5 | 0.00 | 1.22 | 1.19 | 77 | 1015.9 |
| 20260505035213 | 23 | 58 | 3.2 | 12.9 | 0.00 | 1.22 | 1.19 | 77 | 1015.7 |
| 20260505034503 | 23 | 57 | 4.8 | 16.1 | 0.00 | 1.22 | 1.19 | 77 | 1015.6 |
| 20260505034003 | 23 | 66 | 6.4 | 14.5 | 0.00 | 1.24 | 1.19 | 77 | 1015.7 |
| 20260505033504 | 23 | 63 | 4.8 | 14.5 | 0.00 | 1.24 | 1.19 | 77 | 1015.9 |
| 20260505033215 | 23 | 57 | 4.8 | 14.5 | 0.00 | 1.24 | 1.19 | 78 | 1015.9 |
| 20260505032504 | 23 | 54 | 6.4 | 14.5 | 0.00 | 1.24 | 1.19 | 77 | 1015.8 |
| 20260505032004 | 23 | 54 | 3.2 | 12.9 | 0.00 | 1.24 | 1.19 | 77 | 1015.7 |
| 20260505031504 | 23 | 55 | 4.8 | 12.9 | 0.00 | 1.24 | 1.19 | 77 | 1015.7 |
| 20260505031004 | 23 | 61 | 4.8 | 17.7 | 0.00 | 1.24 | 1.19 | 77 | 1015.5 |
| 20260505030715 | 23 | 61 | 3.2 | 17.7 | 0.00 | 1.24 | 1.19 | 77 | 1015.7 |
| 20260505030004 | 23 | 57 | 8.0 | 17.7 | 0.00 | 1.24 | 1.19 | 77 | 1015.6 |
| 20260505025504 | 23 | 56 | 6.4 | 17.7 | 0.00 | 1.24 | 1.19 | 76 | 1015.7 |
| 20260505025003 | 23 | 60 | 4.8 | 17.7 | 0.00 | 1.24 | 1.19 | 76 | 1015.8 |
| 20260505024503 | 23 | 59 | 9.7 | 17.7 | 0.00 | 1.24 | 1.19 | 76 | 1016.0 |
| 20260505024004 | 23 | 57 | 4.8 | 16.1 | 0.00 | 1.24 | 1.19 | 77 | 1016.0 |
| 20260505023504 | 23 | 56 | 6.4 | 16.1 | 0.00 | 1.24 | 1.19 | 77 | 1015.9 |
| 20260505023216 | 23 | 57 | 4.8 | 16.1 | 0.00 | 1.24 | 1.19 | 77 | 1015.8 |
| 20260505022714 | 23 | 62 | 3.2 | 11.3 | 0.00 | 1.24 | 1.19 | 77 | 1015.8 |
| 20260505022004 | 23 | 65 | 1.6 | 17.7 | 0.00 | 1.24 | 1.19 | 77 | 1015.8 |
| 20260505021505 | 23 | 64 | 3.2 | 17.7 | 0.00 | 1.24 | 1.19 | 76 | 1015.8 |
| 20260505021004 | 23 | 63 | 4.8 | 19.3 | 0.00 | 1.24 | 1.19 | 76 | 1015.7 |
| 20260505020716 | 23 | 62 | 6.4 | 19.3 | 0.00 | 1.24 | 1.19 | 76 | 1015.7 |
| 20260505020214 | 23 | 64 | 6.4 | 17.7 | 0.00 | 1.24 | 1.19 | 76 | 1015.7 |
| 20260505015503 | 23 | 59 | 4.8 | 14.5 | 0.00 | 1.24 | 1.19 | 76 | 1015.9 |
| 20260505015004 | 23 | 53 | 4.8 | 14.5 | 0.00 | 1.24 | 1.19 | 76 | 1016.1 |
| 20260505014503 | 23 | 56 | 6.4 | 16.1 | 0.00 | 1.24 | 1.19 | 76 | 1015.8 |
| 20260505014003 | 23 | 62 | 3.2 | 16.1 | 0.00 | 1.24 | 1.19 | 75 | 1015.6 |
| 20260505013503 | 23 | 67 | 3.2 | 16.1 | 0.00 | 1.24 | 1.19 | 75 | 1015.6 |
| 20260505013004 | 23 | 64 | 4.8 | 17.7 | 0.00 | 1.24 | 1.19 | 75 | 1015.6 |
| 20260505012715 | 23 | 66 | 3.2 | 17.7 | 0.00 | 1.24 | 1.19 | 75 | 1015.5 |
| 20260505012003 | 23 | 76 | 8.0 | 19.3 | 0.00 | 1.24 | 1.19 | 76 | 1015.5 |
| 20260505011506 | 23 | 67 | 6.4 | 19.3 | 0.00 | 1.24 | 1.19 | 76 | 1015.4 |
| 20260505011003 | 23 | 59 | 6.4 | 16.1 | 0.00 | 1.24 | 1.19 | 76 | 1015.2 |
| 20260505010716 | 23 | 58 | 8.0 | 16.1 | 0.00 | 1.24 | 1.19 | 75 | 1015.2 |
| 20260505010214 | 23 | 66 | 6.4 | 16.1 | 0.00 | 1.24 | 1.19 | 76 | 1015.3 |
| 20260505005503 | 23 | 69 | 6.4 | 17.7 | 0.00 | 1.24 | 1.19 | 75 | 1015.3 |
| 20260505005004 | 23 | 65 | 4.8 | 17.7 | 0.00 | 1.24 | 1.19 | 75 | 1015.3 |
| 20260505004504 | 23 | 71 | 4.8 | 14.5 | 0.00 | 1.24 | 1.19 | 76 | 1015.3 |
| 20260505004003 | 23 | 74 | 4.8 | 14.5 | 0.00 | 1.24 | 1.19 | 76 | 1015.3 |
| 20260505003504 | 23 | 70 | 4.8 | 17.7 | 0.00 | 1.24 | 1.19 | 75 | 1015.2 |
| 20260505003003 | 23 | 68 | 6.4 | 24.1 | 0.00 | 1.24 | 1.19 | 75 | 1015.1 |
| 20260505002503 | 23 | 70 | 3.2 | 24.1 | 0.00 | 1.24 | 1.19 | 75 | 1015.2 |
| 20260505002005 | 23 | 67 | 6.4 | 22.5 | 0.00 | 1.24 | 1.19 | 75 | 1015.2 |
| 20260505001503 | 23 | 66 | 4.8 | 24.1 | 0.00 | 1.24 | 1.19 | 75 | 1015.2 |
| 20260505001004 | 23 | 68 | 11.3 | 24.1 | 0.00 | 1.24 | 1.19 | 74 | 1015.1 |
| 20260505000505 | 23 | 71 | 4.8 | 17.7 | 0.00 | 1.24 | 1.19 | 74 | 1015.0 |
| 20260505000004 | 23 | 72 | 9.7 | 19.3 | 0.00 | 1.24 | 1.19 | 74 | 1015.0 |
| 20260504235503 | 23 | 68 | 4.8 | 19.3 | 0.00 | 1.24 | 1.19 | 74 | 1015.0 |
| 20260504235003 | 23 | 78 | 6.4 | 20.9 | 0.00 | 1.24 | 1.19 | 74 | 1014.9 |
| 20260504234714 | 23 | 78 | 8.0 | 20.9 | 0.00 | 1.24 | 1.19 | 73 | 1014.9 |
| 20260504234003 | 24 | 68 | 6.4 | 17.7 | 0.00 | 1.27 | 1.19 | 74 | 1014.9 |
| 20260504233504 | 24 | 75 | 9.7 | 17.7 | 0.00 | 1.32 | 1.19 | 73 | 1014.9 |
| 20260504233005 | 24 | 70 | 8.0 | 22.5 | 0.00 | 1.32 | 1.19 | 73 | 1014.9 |
| 20260504232716 | 24 | 65 | 9.7 | 22.5 | 0.00 | 1.32 | 1.19 | 73 | 1014.9 |
| 20260504232004 | 24 | 61 | 9.7 | 19.3 | 0.00 | 1.32 | 1.19 | 73 | 1014.9 |
| 20260504231503 | 24 | 60 | 3.2 | 20.9 | 0.00 | 1.32 | 1.19 | 74 | 1014.9 |
| 20260504231004 | 24 | 62 | 9.7 | 20.9 | 0.00 | 1.32 | 1.19 | 73 | 1014.6 |
| 20260504230504 | 24 | 63 | 9.7 | 20.9 | 0.00 | 1.32 | 1.19 | 73 | 1014.6 |
| 20260504230003 | 24 | 64 | 9.7 | 20.9 | 0.00 | 1.32 | 1.19 | 73 | 1014.7 |
| 20260504225505 | 24 | 64 | 9.7 | 20.9 | 0.00 | 1.32 | 1.19 | 73 | 1014.7 |
| 20260504225003 | 24 | 63 | 4.8 | 19.3 | 0.00 | 1.32 | 1.19 | 73 | 1014.7 |
| 20260504224503 | 24 | 64 | 6.4 | 20.9 | 0.00 | 1.32 | 1.19 | 73 | 1014.7 |
| 20260504224004 | 24 | 75 | 12.9 | 20.9 | 0.00 | 1.32 | 1.19 | 72 | 1014.7 |
| 20260504223503 | 24 | 82 | 3.2 | 19.3 | 0.00 | 1.32 | 1.19 | 74 | 1014.7 |
| 20260504223004 | 24 | 77 | 8.0 | 20.9 | 0.00 | 1.32 | 1.19 | 73 | 1014.6 |
| 20260504222716 | 24 | 76 | 11.3 | 20.9 | 0.00 | 1.32 | 1.19 | 73 | 1014.6 |
| 20260504222214 | 24 | 70 | 8.0 | 19.3 | 0.00 | 1.32 | 1.19 | 72 | 1014.7 |
| 20260504221503 | 24 | 62 | 4.8 | 17.7 | 0.00 | 1.32 | 1.19 | 72 | 1015.1 |
| 20260504221003 | 25 | 62 | 4.8 | 20.9 | 0.00 | 1.32 | 1.19 | 72 | 1015.2 |
| 20260504220503 | 25 | 66 | 9.7 | 20.9 | 0.00 | 1.32 | 1.19 | 71 | 1015.2 |
| 20260504220216 | 25 | 66 | 4.8 | 17.7 | 0.00 | 1.32 | 1.19 | 71 | 1015.2 |
| 20260504215503 | 25 | 57 | 9.7 | 20.9 | 0.00 | 1.32 | 1.19 | 69 | 1014.8 |
| 20260504215003 | 25 | 52 | 8.0 | 32.2 | 0.00 | 1.32 | 1.19 | 70 | 1014.9 |
| 20260504214504 | 25 | 59 | 9.7 | 32.2 | 0.00 | 1.32 | 1.19 | 70 | 1014.7 |
| 20260504214003 | 25 | 66 | 17.7 | 29.0 | 0.00 | 1.32 | 1.19 | 69 | 1014.7 |
| 20260504213504 | 25 | 66 | 4.8 | 24.1 | 0.00 | 1.32 | 1.19 | 71 | 1014.7 |
| 20260504213214 | 25 | 65 | 12.9 | 24.1 | 0.00 | 1.32 | 1.19 | 70 | 1014.7 |
| 20260504212504 | 25 | 57 | 12.9 | 32.2 | 0.00 | 1.32 | 1.19 | 70 | 1014.7 |
| 20260504212215 | 25 | 56 | 8.0 | 32.2 | 0.00 | 1.32 | 1.19 | 71 | 1014.7 |
| 20260504211503 | 25 | 57 | 6.4 | 25.7 | 0.00 | 1.32 | 1.19 | 71 | 1014.8 |
| 20260504211003 | 25 | 61 | 8.0 | 25.7 | 0.00 | 1.32 | 1.19 | 72 | 1014.9 |
| 20260504210503 | 25 | 64 | 16.1 | 25.7 | 0.00 | 1.32 | 1.19 | 72 | 1014.9 |
| 20260504210004 | 25 | 66 | 11.3 | 25.7 | 0.00 | 1.32 | 1.19 | 72 | 1015.1 |
| 20260504205504 | 25 | 70 | 6.4 | 29.0 | 0.00 | 1.32 | 1.19 | 73 | 1015.1 |
| 20260504205003 | 24 | 75 | 8.0 | 29.0 | 0.00 | 1.32 | 1.19 | 73 | 1015.2 |
| 20260504204503 | 24 | 67 | 9.7 | 32.2 | 0.00 | 1.32 | 1.19 | 73 | 1015.1 |
| 20260504204004 | 24 | 58 | 14.5 | 32.2 | 0.00 | 1.32 | 1.19 | 72 | 1015.2 |
| 20260504203506 | 24 | 62 | 9.7 | 24.1 | 0.00 | 1.32 | 1.19 | 73 | 1015.1 |
| 20260504203004 | 24 | 69 | 8.0 | 19.3 | 0.00 | 1.32 | 1.19 | 73 | 1015.2 |
| 20260504202506 | 24 | 71 | 8.0 | 29.0 | 0.00 | 1.32 | 1.19 | 73 | 1015.2 |
| 20260504202004 | 25 | 68 | 14.5 | 29.0 | 0.00 | 1.32 | 1.19 | 71 | 1015.4 |
| 20260504201714 | 25 | 71 | 11.3 | 24.1 | 0.00 | 1.32 | 1.19 | 71 | 1015.3 |
| 20260504201217 | 25 | 73 | 6.4 | 24.1 | 0.00 | 1.32 | 1.19 | 72 | 1015.3 |
| 20260504200504 | 25 | 69 | 9.7 | 25.7 | 0.00 | 1.32 | 1.19 | 70 | 1015.3 |
| 20260504200004 | 25 | 64 | 11.3 | 25.7 | 0.00 | 1.32 | 1.19 | 72 | 1015.4 |
| 20260504195504 | 25 | 63 | 9.7 | 29.0 | 0.00 | 1.32 | 1.19 | 72 | 1015.4 |
| 20260504195003 | 25 | 72 | 12.9 | 29.0 | 0.00 | 1.32 | 1.19 | 71 | 1015.3 |
| 20260504194716 | 25 | 79 | 11.3 | 29.0 | 0.00 | 1.32 | 1.19 | 71 | 1015.3 |
| 20260504194005 | 25 | 71 | 12.9 | 25.7 | 0.00 | 1.32 | 1.19 | 73 | 1015.5 |
| 20260504193504 | 25 | 68 | 8.0 | 27.4 | 0.00 | 1.32 | 1.19 | 72 | 1015.5 |
| 20260504193004 | 25 | 60 | 16.1 | 27.4 | 0.00 | 1.32 | 1.19 | 72 | 1015.6 |
| 20260504192504 | 25 | 61 | 6.4 | 25.7 | 0.00 | 1.32 | 1.19 | 73 | 1015.6 |
| 20260504192216 | 25 | 63 | 12.9 | 25.7 | 0.00 | 1.32 | 1.19 | 71 | 1015.6 |
| 20260504191503 | 25 | 65 | 11.3 | 22.5 | 0.00 | 1.32 | 1.19 | 71 | 1015.8 |
| 20260504191217 | 26 | 65 | 8.0 | 29.0 | 0.00 | 1.32 | 1.19 | 71 | 1015.7 |
| 20260504190504 | 25 | 59 | 11.3 | 29.0 | 0.00 | 1.35 | 1.19 | 72 | 1015.7 |
| 20260504190004 | 25 | 59 | 11.3 | 29.0 | 0.00 | 1.35 | 1.19 | 73 | 1015.7 |
| 20260504185504 | 25 | 57 | 14.5 | 29.0 | 0.00 | 1.35 | 1.19 | 74 | 1015.8 |
| 20260504185214 | 25 | 61 | 11.3 | 27.4 | 0.00 | 1.35 | 1.19 | 77 | 1015.7 |
| 20260504184503 | 24 | 60 | 11.3 | 29.0 | 0.00 | 1.35 | 1.19 | 77 | 1015.8 |
| 20260504184215 | 24 | 57 | 9.7 | 29.0 | 0.00 | 1.35 | 1.19 | 78 | 1016.0 |
| 20260504183503 | 23 | 60 | 11.3 | 27.4 | 0.00 | 1.35 | 1.19 | 78 | 1016.0 |
| 20260504183005 | 23 | 60 | 14.5 | 27.4 | 0.00 | 1.35 | 1.19 | 77 | 1016.1 |
| 20260504182504 | 23 | 51 | 8.0 | 27.4 | 0.00 | 1.35 | 1.19 | 79 | 1016.2 |
| 20260504182005 | 23 | 53 | 4.8 | 27.4 | 0.03 | 1.35 | 1.19 | 78 | 1016.2 |
| 20260504181503 | 23 | 60 | 12.9 | 24.1 | 0.03 | 1.37 | 1.19 | 78 | 1016.2 |
| 20260504181005 | 23 | 60 | 8.0 | 24.1 | 0.03 | 1.37 | 1.19 | 79 | 1016.1 |
| 20260504180504 | 23 | 57 | 8.0 | 24.1 | 0.03 | 1.37 | 1.19 | 79 | 1016.5 |
| 20260504180004 | 23 | 56 | 8.0 | 24.1 | 0.03 | 1.37 | 1.19 | 78 | 1016.4 |
| 20260504175505 | 23 | 57 | 8.0 | 24.1 | 0.03 | 1.37 | 1.19 | 79 | 1016.3 |
| 20260504175004 | 23 | 61 | 8.0 | 20.9 | 0.03 | 1.37 | 1.19 | 79 | 1016.3 |
| 20260504174503 | 23 | 61 | 9.7 | 19.3 | 0.03 | 1.37 | 1.19 | 79 | 1016.4 |
| 20260504174216 | 23 | 57 | 11.3 | 24.1 | 0.03 | 1.37 | 1.19 | 80 | 1016.4 |
| 20260504173504 | 23 | 60 | 9.7 | 25.7 | 0.03 | 1.37 | 1.19 | 81 | 1016.5 |
| 20260504173004 | 23 | 59 | 14.5 | 25.7 | 0.03 | 1.37 | 1.19 | 81 | 1016.5 |
| 20260504172504 | 23 | 52 | 14.5 | 22.5 | 0.03 | 1.37 | 1.19 | 80 | 1016.5 |
| 20260504172003 | 23 | 53 | 11.3 | 27.4 | 0.00 | 1.35 | 1.17 | 79 | 1016.4 |
| 20260504171503 | 23 | 57 | 12.9 | 27.4 | 0.00 | 1.35 | 1.17 | 78 | 1016.5 |
| 20260504171005 | 23 | 53 | 12.9 | 22.5 | 0.00 | 1.35 | 1.17 | 78 | 1016.5 |
| 20260504170504 | 23 | 56 | 6.4 | 25.7 | 0.03 | 1.35 | 1.17 | 79 | 1016.5 |
| 20260504151005 | 25 | 52 | 11.3 | 24.1 | 0.00 | 1.30 | 1.12 | 74 | 1016.7 |
| 20260504150505 | 25 | 52 | 6.4 | 24.1 | 0.00 | 1.30 | 1.12 | 74 | 1016.7 |